Theta_e
341 341 341 340 339 338 338 337 336 336 335 335 334 334 333 333 331 330 328 327 326 325 325 324 324 323 321 321 320 320 319 319 319 317 316 316 315 315 314 312 311 311 311 311 311 311 311 311 311 310 310 310 309 309 309 310 310 310 311 311 310 311 312 311 312 311 308 307 307 306 305 305 305 304 303 304 305 305 304 305 305 304 303 304 304
340 340 340 339 339 338 337 336 335 335 335 334 333 333 332 332 330 328 327 326 326 326 325 324 323 322 321 320 320 319 319 318 318 316 315 314 314 313 312 311 311 311 311 311 311 311 310 310 310 309 309 309 309 310 310 310 310 310 310 311 310 310 311 311 310 310 309 307 306 305 305 305 305 304 303 304 304 304 304 304 304 303 303 303 304
340 339 339 339 339 338 337 336 335 335 334 333 332 331 331 330 328 328 327 326 326 326 324 323 322 321 321 320 320 319 318 318 317 315 314 314 313 312 312 311 311 310 310 311 311 310 310 310 309 309 309 309 309 310 310 310 310 310 310 310 310 310 310 310 309 309 308 307 306 305 304 304 304 304 302 303 304 304 304 304 304 303 303 303 304
339 339 339 339 339 338 336 335 334 334 333 332 330 329 329 328 327 327 326 326 326 325 323 322 321 321 320 320 319 318 318 317 315 314 314 313 312 311 311 310 310 310 310 310 310 310 310 309 309 309 309 309 309 309 310 310 310 310 310 309 310 310 310 309 308 308 307 307 306 305 304 303 303 303 302 302 304 304 303 304 304 303 303 303 304
339 339 339 339 339 337 336 335 334 334 332 330 329 328 328 328 327 327 326 325 325 324 323 322 321 321 320 320 319 318 317 315 314 313 313 312 311 310 310 310 310 310 310 310 310 309 309 309 309 310 310 309 309 308 309 309 310 310 310 310 310 310 310 308 307 307 307 306 305 304 303 302 302 302 301 302 303 303 303 304 304 303 303 303 304
339 339 339 339 338 337 336 335 334 333 331 330 328 327 327 327 327 326 325 325 324 323 322 322 321 320 320 319 318 317 316 314 313 312 311 311 311 310 310 310 310 310 309 309 309 309 308 308 308 308 309 309 309 308 308 309 309 310 310 310 310 310 310 308 306 306 306 305 304 304 303 301 301 301 301 302 303 303 303 304 303 303 303 303 303
338 339 338 338 336 336 335 334 333 331 330 328 327 326 326 326 325 324 324 324 324 322 322 321 320 320 319 318 317 316 314 313 312 311 311 311 311 310 310 309 309 309 309 308 308 307 306 305 305 306 306 307 308 308 308 308 309 310 310 310 310 309 309 308 305 304 305 304 304 304 302 300 300 300 300 301 302 303 304 304 303 303 303 303 304
338 338 337 336 335 334 334 333 331 329 328 327 326 326 325 324 324 324 323 324 323 322 322 321 320 319 318 317 316 314 313 312 311 311 311 311 310 310 309 309 309 308 307 306 305 304 303 302 302 303 304 305 306 307 308 307 307 308 309 310 309 309 308 307 305 304 303 303 303 303 302 300 299 299 299 300 301 303 304 304 304 303 303 303 304
337 337 336 335 334 333 331 331 330 328 326 325 325 325 324 324 323 323 323 323 323 323 321 320 319 318 317 316 315 313 312 311 311 310 310 310 310 310 309 309 308 307 306 304 301 300 299 299 300 300 301 301 301 302 303 304 306 307 309 309 309 308 307 307 306 304 302 302 303 302 301 300 299 299 299 300 301 302 303 304 304 303 302 303 303
337 336 335 333 332 331 330 329 327 327 325 325 324 323 323 323 322 322 322 322 322 322 320 319 318 317 316 315 313 312 311 310 310 310 310 310 310 309 309 309 308 307 304 300 298 297 298 299 299 298 298 296 296 296 296 298 301 304 307 308 309 308 307 306 305 304 302 301 301 301 301 300 299 299 299 299 300 302 303 304 304 303 302 303 302
336 335 334 333 331 329 328 327 326 326 325 324 323 323 323 322 321 321 321 322 321 320 319 318 317 316 315 313 312 311 310 310 309 310 310 309 309 309 309 308 307 306 302 298 297 297 298 298 297 297 296 296 296 296 295 294 295 297 301 304 306 307 307 306 305 304 302 301 300 300 300 300 299 299 299 298 299 301 302 304 304 303 302 302 302
335 334 332 331 330 328 326 325 325 325 324 323 322 322 322 322 321 321 321 321 320 319 318 317 316 315 314 312 311 310 309 308 308 309 309 308 308 308 308 307 306 305 301 298 299 299 298 299 298 298 298 299 299 299 299 297 295 294 295 297 301 304 305 305 304 304 302 301 299 299 300 300 300 300 299 298 298 300 301 303 304 302 302 303 302
333 331 331 330 328 327 326 325 324 323 323 322 322 322 321 321 320 320 320 320 319 318 317 316 315 314 312 311 310 309 308 307 307 307 308 308 308 307 307 306 305 303 301 301 303 303 304 304 304 303 302 303 304 304 303 302 301 299 297 296 296 298 301 302 302 302 301 300 300 299 300 300 300 299 299 298 298 299 300 302 303 302 302 302 302
331 329 329 328 327 326 326 324 323 322 322 322 322 322 321 320 320 319 319 318 317 317 316 315 313 312 312 311 309 308 306 306 307 307 307 307 307 307 306 306 306 305 304 305 306 306 305 305 305 305 305 305 306 305 305 305 305 303 300 298 295 295 297 298 299 299 299 299 300 300 300 300 299 299 298 297 297 298 299 301 302 301 301 302 301
329 327 327 326 325 325 324 323 322 322 321 321 321 321 320 319 319 318 318 317 316 315 314 313 313 312 311 309 307 306 306 306 306 306 306 307 307 306 306 306 306 306 306 306 305 305 304 304 304 305 306 306 306 305 306 306 307 306 304 302 299 298 298 298 299 299 300 300 301 301 300 300 300 299 298 297 298 299 299 300 301 300 301 301 301
327 326 325 325 325 324 323 322 321 321 321 321 320 320 319 318 317 317 316 316 315 314 313 313 312 311 310 308 306 305 305 305 305 306 306 306 306 306 306 306 306 305 305 305 305 304 303 303 303 303 304 304 304 305 305 306 306 306 306 305 305 304 303 301 300 301 301 302 302 301 301 300 300 300 299 298 298 299 300 300 300 300 301 301 300
326 325 325 324 324 324 323 321 321 321 321 320 319 318 317 317 316 316 315 315 314 313 312 312 310 309 307 306 305 304 304 305 305 305 305 306 306 306 306 306 306 305 305 305 304 303 302 301 301 301 302 302 303 304 304 305 305 305 305 305 305 305 304 301 300 301 302 303 302 302 302 301 301 301 300 299 299 299 300 300 299 300 301 300 300
326 325 325 324 324 323 322 320 320 320 319 318 317 317 316 316 315 315 315 314 313 313 312 310 308 306 305 305 304 304 304 304 304 304 305 306 305 305 305 305 305 304 304 304 303 302 301 300 299 299 300 301 302 303 303 304 305 304 304 304 304 304 304 302 301 302 302 303 303 302 302 301 301 300 300 300 300 299 299 300 299 299 300 300 300
325 325 324 323 323 322 321 319 319 319 318 317 317 316 316 315 315 315 315 314 313 312 311 309 307 305 304 303 303 303 303 304 304 304 305 306 305 304 304 304 304 304 304 304 303 301 300 299 298 297 298 300 302 302 303 304 304 304 303 303 303 302 302 302 302 302 302 302 302 301 301 300 300 300 299 300 300 300 299 299 298 298 299 300 299
325 324 323 322 321 320 319 319 318 318 317 317 316 316 315 315 315 315 314 313 312 311 309 308 306 305 303 301 301 302 302 303 303 304 304 305 305 305 304 304 304 304 304 303 302 300 299 299 298 295 296 300 301 302 303 303 303 303 303 302 300 299 299 300 301 301 301 302 301 300 300 300 299 299 299 299 299 299 299 299 298 298 299 299 299
324 323 323 321 319 318 318 319 318 318 317 317 316 316 315 315 315 315 314 313 311 310 309 307 306 304 302 300 300 301 301 302 303 303 304 304 304 304 304 304 303 302 301 301 301 300 298 298 297 294 294 297 299 301 302 301 300 299 298 297 297 298 298 299 300 300 301 301 300 300 300 300 299 299 299 299 299 299 299 299 298 298 299 299 299
323 322 322 320 318 318 318 319 318 318 317 317 316 316 315 315 315 314 313 312 311 310 309 308 306 303 301 300 300 300 301 301 302 302 303 303 303 303 304 304 303 301 300 299 299 298 297 296 295 293 292 293 295 297 298 297 297 295 293 294 297 298 299 300 300 300 301 300 300 300 300 299 299 299 299 299 299 299 299 299 298 299 299 299 299
322 321 321 319 318 318 318 318 318 318 317 317 316 316 315 315 314 314 313 312 311 310 309 307 305 303 302 302 300 299 299 301 302 302 302 302 302 302 303 304 303 301 300 300 299 298 298 296 293 292 292 292 292 293 293 293 293 293 293 296 298 299 299 300 300 300 300 300 299 300 299 299 299 299 299 299 299 299 299 299 299 299 299 299 299
322 321 320 319 319 318 319 319 318 318 317 316 316 315 315 314 314 314 313 312 311 310 309 307 306 304 303 303 301 298 298 300 301 301 301 301 301 302 303 304 304 303 302 302 301 300 300 298 295 292 292 292 291 291 292 292 292 292 295 297 298 299 299 300 300 300 300 300 299 299 299 299 299 299 299 299 299 299 299 299 299 299 299 299 299
321 320 319 319 319 319 319 319 318 317 317 316 315 315 314 314 314 314 313 312 310 309 309 307 305 304 304 303 301 299 298 299 300 301 301 300 300 301 302 302 303 304 304 304 303 301 301 300 297 292 291 291 291 291 292 292 293 294 296 298 299 299 299 299 299 300 300 299 299 299 299 299 300 300 300 299 300 300 299 299 299 300 299 299 300
320 319 319 319 319 319 318 318 317 316 316 315 315 315 314 314 314 313 313 311 310 309 308 307 305 305 304 303 302 300 299 299 300 300 300 300 300 301 301 301 302 303 303 303 303 302 302 300 296 292 291 291 291 292 292 293 294 296 297 298 299 299 298 298 299 300 299 299 299 300 299 300 300 300 300 300 299 300 300 299 299 300 300 299 300
320 319 319 319 319 318 317 317 316 316 315 315 315 315 314 314 313 312 311 310 309 308 308 307 306 305 305 304 302 301 299 299 299 299 299 299 300 300 300 300 302 302 302 302 302 301 301 299 294 291 291 292 293 295 294 294 295 297 298 299 299 299 298 298 299 300 299 299 300 300 300 300 300 300 300 300 300 300 300 299 299 300 300 299 300
320 320 319 319 319 318 316 316 316 315 315 315 315 314 314 313 312 311 311 310 309 308 308 307 306 306 306 304 303 301 300 299 298 299 299 299 300 300 300 300 301 301 301 301 300 301 301 298 293 291 292 292 294 296 296 295 296 298 298 299 300 300 299 299 300 299 299 299 300 300 299 300 300 300 300 300 299 299 300 299 299 299 300 299 300
320 319 319 319 318 317 316 316 315 315 315 314 314 313 313 312 311 311 311 310 309 308 308 307 306 306 306 305 303 302 301 299 298 298 299 299 299 300 300 300 301 301 301 300 300 299 298 295 292 291 293 294 295 296 297 297 298 299 299 299 299 299 299 299 300 299 299 299 300 300 299 300 300 300 299 299 299 299 299 299 299 299 299 299 299
320 319 319 318 318 317 316 315 315 315 314 313 313 312 312 312 311 311 310 309 309 308 307 307 306 306 306 305 303 302 301 300 298 298 298 299 299 299 299 299 300 301 300 299 298 297 294 293 293 294 295 297 298 299 299 299 300 300 300 300 299 298 299 299 300 299 299 299 299 299 299 300 299 299 299 299 299 299 299 299 299 299 299 299 299
320 319 319 318 317 316 316 315 315 314 313 312 312 311 310 310 310 310 310 310 309 308 307 306 306 306 306 305 304 302 302 301 299 297 297 298 298 298 298 298 299 300 299 298 298 298 296 296 297 298 299 300 301 301 301 300 300 300 300 300 300 299 299 299 299 300 300 300 299 299 300 299 299 299 299 299 299 299 299 299 299 299 299 299 299
320 319 318 318 316 315 315 315 314 313 313 312 311 310 309 307 307 307 308 308 308 307 306 306 306 306 306 306 304 303 302 302 300 297 297 298 298 298 298 298 298 299 299 299 299 300 299 299 300 300 301 302 302 301 300 300 300 299 299 299 300 299 299 299 299 300 300 300 299 300 300 299 299 299 299 299 299 299 299 299 299 299 299 299 299
320 319 318 317 316 315 314 314 314 314 313 312 311 311 309 307 304 304 304 305 307 307 306 306 306 307 307 306 305 304 303 302 300 298 298 298 298 299 299 298 298 299 300 299 299 300 300 300 301 301 301 301 301 300 300 299 300 300 299 299 299 299 300 300 300 300 301 300 300 300 300 299 299 299 299 299 299 299 299 299 299 299 299 299 299
320 319 318 316 315 315 315 314 314 314 313 312 311 311 310 308 305 303 302 303 304 305 305 305 305 306 307 306 305 304 303 301 299 298 298 299 299 299 299 299 299 300 300 299 299 299 299 300 301 301 301 301 300 300 299 299 300 300 300 300 300 300 301 301 301 301 301 300 299 300 299 299 299 299 299 299 299 299 299 299 299 299 299 299 299
319 318 317 316 315 315 315 314 314 314 313 312 311 311 311 309 306 304 303 303 303 302 302 303 303 304 305 305 304 303 302 300 299 299 299 299 300 300 300 299 298 299 299 299 298 298 299 300 300 301 301 301 301 300 300 300 300 300 300 300 300 301 301 301 301 300 300 299 299 299 299 299 299 299 299 299 299 299 299 299 299 299 299 298 298
318 316 315 314 314 314 314 314 313 313 312 312 311 311 311 309 307 305 305 305 304 303 301 301 301 302 302 303 302 301 300 299 299 299 299 299 299 299 299 298 298 298 298 297 297 297 299 300 301 301 301 301 301 301 300 300 300 301 301 300 301 301 301 301 300 300 299 299 299 299 299 299 299 299 299 299 299 298 298 299 299 299 298 298 298
317 314 313 313 314 314 313 313 312 312 312 312 311 310 310 309 307 306 306 305 306 305 302 300 300 300 299 300 300 300 299 299 299 299 299 298 299 299 298 298 297 297 297 297 296 297 299 300 301 301 301 301 301 301 300 300 301 301 301 301 301 301 301 300 300 300 299 299 299 299 299 299 299 299 299 299 298 298 298 298 298 298 298 298 298
315 313 313 313 313 313 313 312 312 312 311 310 308 308 308 307 307 307 306 305 306 306 303 300 299 299 298 298 299 299 299 298 298 298 298 298 298 298 298 297 297 297 297 297 296 297 298 300 301 302 302 301 301 302 301 301 301 301 301 301 301 300 301 300 300 300 300 300 299 299 299 299 299 299 298 298 298 298 298 298 298 298 298 297 297
314 313 313 313 313 313 313 312 311 310 309 306 305 305 305 305 306 306 305 304 306 306 304 301 300 299 298 298 298 298 297 297 296 296 296 296 296 297 297 297 297 298 298 298 298 298 298 299 301 302 302 302 302 302 302 302 302 301 302 301 301 301 300 300 300 300 299 299 299 299 299 299 299 298 298 298 298 298 298 298 297 297 296 296 296
313 312 313 313 313 313 312 311 310 309 307 305 303 303 303 303 304 304 304 304 305 306 304 302 301 301 300 299 298 298 296 295 295 295 295 295 296 296 296 297 298 298 299 299 299 299 299 300 301 301 301 302 302 302 302 302 302 301 301 301 301 301 300 300 300 299 299 299 299 299 298 298 298 298 297 297 298 297 297 297 296 296 295 295 294
313 312 312 312 312 312 311 310 310 309 307 305 303 301 301 302 302 302 302 303 303 303 302 301 301 301 301 300 300 299 297 295 295 295 295 295 296 296 296 297 298 299 300 301 301 301 301 301 301 302 302 302 302 302 302 302 301 301 301 301 301 300 300 299 299 299 299 299 298 298 298 297 297 297 297 297 297 297 296 296 295 294 294 293 291
312 311 311 311 311 311 310 309 309 308 307 305 303 301 301 301 300 300 301 301 300 301 302 301 300 300 300 299 300 299 297 296 296 296 295 295 296 296 296 296 297 299 300 301 302 302 301 301 302 302 302 302 302 302 301 301 301 301 300 300 300 300 299 299 299 299 299 298 298 297 297 296 296 296 296 296 296 295 294 293 293 292 291 290 289
312 311 311 310 310 310 309 308 308 308 306 305 302 301 300 300 300 300 301 301 300 300 302 302 300 298 298 298 298 297 296 296 296 296 296 296 296 296 297 296 297 298 300 301 302 302 301 301 301 301 301 301 301 301 301 300 300 300 300 300 300 299 299 299 299 298 298 297 296 296 296 296 296 295 295 295 294 293 292 291 290 289 288 288 288
311 311 310 310 310 310 309 308 308 308 307 306 303 301 301 301 300 300 301 302 300 300 302 303 300 298 298 298 297 295 296 297 297 296 297 297 296 297 297 296 297 298 300 301 301 301 301 301 301 301 300 301 301 301 301 301 301 301 300 300 299 299 299 298 298 297 297 296 295 295 295 295 294 294 293 293 292 290 289 289 288 287 287 287 286
309 310 310 310 310 309 308 308 308 307 307 306 304 302 301 301 301 301 302 303 302 301 302 302 300 298 297 297 295 294 295 297 297 296 297 297 297 297 297 297 298 299 301 301 301 301 301 301 301 300 300 301 301 302 302 301 301 301 301 300 299 298 298 297 297 296 296 295 294 294 294 293 292 292 291 290 288 288 288 287 286 286 286 285 285
309 309 310 309 309 308 308 308 307 307 306 305 303 302 301 301 302 302 303 303 303 302 302 301 299 297 297 296 294 293 294 297 298 297 297 298 297 297 298 299 299 300 301 301 301 301 301 301 300 300 300 300 300 301 301 301 301 300 300 299 298 297 297 296 295 295 295 294 294 293 292 291 290 290 288 287 286 287 286 286 285 285 285 284 284
308 308 308 308 307 307 307 307 307 306 305 304 302 301 302 302 302 302 302 303 303 302 301 300 299 297 296 296 295 293 293 296 298 298 298 299 298 298 299 300 300 300 301 301 301 301 301 300 300 300 299 299 300 300 299 299 299 299 298 298 297 296 295 295 294 294 294 294 293 291 290 289 289 288 286 285 286 286 285 284 284 284 283 283 284
308 308 308 307 307 306 306 306 306 306 305 303 302 302 303 303 303 302 302 302 303 302 301 300 300 298 297 296 297 296 295 295 297 298 298 299 299 299 299 300 300 300 300 300 300 301 300 300 300 300 299 299 299 299 299 299 298 298 297 296 295 295 295 294 294 294 293 292 290 289 288 287 287 285 284 285 286 285 283 283 283 283 282 283 283
308 308 307 307 306 306 305 305 305 305 305 304 303 303 303 303 303 303 302 302 302 302 301 300 300 299 298 298 298 298 296 295 296 298 299 299 299 299 299 299 299 300 300 301 301 301 300 300 300 299 299 298 298 298 298 298 298 297 296 295 294 294 294 293 293 292 290 289 288 287 286 286 285 283 283 285 285 283 281 282 282 282 282 282 283
307 307 307 307 306 306 305 305 304 305 305 304 303 303 303 303 303 303 303 302 302 302 301 300 300 299 299 299 299 299 298 297 296 297 298 298 298 299 299 299 299 300 301 301 301 300 300 299 299 298 298 297 297 297 297 297 296 295 295 294 294 293 293 292 291 290 287 285 285 285 285 284 283 282 283 284 282 280 280 281 281 281 282 282 282
306 306 306 306 306 305 305 305 304 304 304 304 304 303 302 302 303 303 303 303 303 302 301 301 300 299 299 299 298 298 299 297 296 296 297 297 298 299 299 300 300 301 301 301 300 300 299 298 298 297 297 297 296 296 296 295 295 294 294 293 293 293 292 290 288 286 284 283 283 283 283 283 282 282 282 281 280 279 280 281 281 280 281 282 281
Wind_Speed
24 25 24 23 24 26 25 24 24 23 24 24 24 25 26 25 24 24 26 24 22 19 16 16 15 14 15 15 14 13 13 11 10 10 12 12 12 12 12 12 13 13 13 13 13 13 13 14 13 12 11 11 12 13 12 12 12 12 11 11 12 12 11 10 8 7 10 12 11 13 16 15 15 19 21 21 22 21 19 18 18 20 21 20 19
25 25 23 23 24 25 25 24 24 23 23 22 24 26 25 25 25 25 25 24 22 19 18 17 15 14 15 14 13 13 12 10 10 11 12 13 13 13 12 13 13 13 13 13 13 13 13 14 13 12 11 12 13 12 11 11 11 11 11 11 11 11 11 11 9 7 8 11 13 14 16 16 16 18 21 22 21 21 20 18 17 19 21 21 19
25 24 21 22 24 24 25 24 24 24 23 23 24 25 25 25 26 25 26 25 22 20 18 18 16 15 14 13 13 12 12 11 10 12 13 13 13 14 13 14 14 13 13 13 12 13 13 13 13 12 12 12 13 12 11 10 10 10 11 10 10 10 10 10 9 8 9 10 12 14 16 17 17 18 20 21 19 19 20 19 18 19 21 22 19
24 22 21 23 25 26 26 25 25 25 24 23 23 22 24 27 26 26 27 24 21 20 19 18 17 16 15 13 13 13 12 11 11 12 13 13 14 15 14 14 13 13 13 13 12 12 13 13 12 11 11 12 12 11 11 10 9 9 9 9 9 8 9 10 10 9 10 10 10 12 15 17 17 17 20 21 19 18 19 19 18 20 22 22 18
22 21 21 24 27 27 27 26 26 26 25 23 21 21 25 28 26 27 27 24 21 21 20 18 17 16 15 14 13 13 12 11 12 13 14 15 15 15 15 14 14 14 13 13 13 12 12 12 11 10 10 11 11 11 11 10 9 9 8 8 7 7 7 9 11 10 10 10 11 12 14 16 17 17 18 21 20 18 20 20 19 20 23 22 19
21 21 22 24 26 27 27 27 27 26 24 22 21 22 26 28 27 28 28 24 21 20 19 18 17 16 15 14 13 13 12 12 13 14 15 16 16 16 15 15 15 14 14 13 13 12 12 12 11 10 10 10 10 10 10 9 9 9 8 7 7 7 7 9 11 11 10 11 11 12 14 16 17 18 18 19 19 18 20 21 20 22 24 23 20
22 22 23 25 27 27 27 27 26 24 22 21 20 22 26 28 29 29 27 24 21 20 19 17 17 16 15 15 14 13 13 14 15 15 16 16 16 17 17 16 16 15 14 14 13 12 12 11 11 10 10 9 9 10 10 9 7 7 8 7 7 7 8 9 11 11 11 11 12 12 13 15 17 18 18 19 18 18 20 20 20 23 25 24 21
23 23 24 25 26 27 26 25 24 22 21 21 20 21 25 28 29 28 27 25 22 19 18 16 16 17 16 16 15 14 13 15 16 16 16 16 17 17 17 17 17 16 15 14 13 12 11 11 10 10 10 10 9 9 9 8 7 7 8 9 9 9 9 9 11 12 12 12 12 12 12 14 17 17 18 20 19 20 21 20 19 22 24 23 20
24 24 25 25 25 25 25 25 23 22 22 21 21 24 27 28 29 28 27 26 21 18 17 17 17 17 17 17 15 14 14 15 16 16 17 18 18 17 17 17 17 17 17 15 14 14 15 16 16 15 15 14 13 11 10 9 9 9 9 11 11 11 10 10 12 13 12 12 12 11 11 13 17 18 18 20 20 20 21 20 19 21 23 23 20
25 24 24 25 25 24 24 24 21 22 23 21 22 27 28 28 28 27 26 24 19 17 18 18 18 17 17 18 16 14 15 16 16 17 18 18 18 18 17 17 17 17 18 18 19 20 20 20 20 19 19 18 18 17 16 14 13 12 10 10 11 12 12 12 12 12 11 11 11 10 11 13 15 17 18 19 20 20 20 20 20 21 23 22 18
24 23 24 25 26 24 23 23 21 22 23 22 23 28 29 27 26 27 25 21 17 18 19 19 18 17 17 18 16 14 16 17 18 19 18 18 18 18 18 18 17 17 18 20 22 22 21 21 21 20 20 19 18 18 18 18 17 15 13 11 10 11 11 12 12 11 10 10 10 10 10 11 13 16 18 20 21 20 20 20 19 21 23 19 16
23 24 24 25 25 24 23 23 22 23 23 23 24 28 27 24 25 27 23 18 18 20 19 19 19 18 19 17 15 15 17 19 20 20 19 18 18 18 18 18 18 18 19 20 20 19 19 18 18 17 16 15 15 15 16 17 17 16 16 14 12 11 11 12 11 10 9 8 9 10 9 9 11 14 17 19 21 21 20 20 19 21 24 20 17
24 25 24 25 24 22 22 23 23 23 23 23 26 27 25 23 25 26 21 18 21 22 21 20 19 19 20 16 14 17 20 21 21 21 20 19 18 17 17 17 18 18 19 18 16 14 13 11 11 11 8 7 7 7 9 12 13 14 14 13 13 13 12 12 11 10 8 7 7 7 8 8 9 12 14 17 20 21 21 21 20 22 25 22 20
26 25 24 24 22 22 23 22 22 22 23 25 28 27 25 23 24 23 20 21 24 22 21 20 19 19 19 15 16 21 22 22 23 22 21 19 17 17 17 17 17 17 16 15 14 12 11 10 10 9 6 5 6 4 3 5 7 10 11 10 11 12 12 12 11 10 8 7 6 5 7 8 9 11 12 15 20 22 21 21 20 21 25 21 19
26 24 22 23 22 22 23 23 23 23 24 27 27 25 24 23 23 22 22 23 23 21 20 20 18 19 18 16 19 23 23 24 24 23 21 19 17 17 17 17 17 16 15 14 13 12 12 10 10 9 6 8 11 8 5 4 3 4 7 5 5 8 9 9 8 7 7 6 6 5 5 7 8 9 10 12 17 21 20 18 17 19 22 19 17
24 22 21 22 22 22 23 24 24 24 26 26 25 24 23 23 23 23 23 22 20 20 20 19 17 18 18 18 22 25 25 26 26 23 21 18 17 17 17 17 17 16 15 14 13 12 11 10 11 9 8 11 12 10 8 6 5 5 5 3 1 1 4 7 7 6 6 6 6 6 6 6 7 7 9 8 12 19 18 15 17 19 20 18 17
21 21 21 21 22 23 24 25 26 26 27 27 25 24 24 24 24 25 24 22 20 20 20 18 16 18 19 21 24 26 27 27 26 24 21 18 17 17 16 16 16 15 15 14 13 13 12 10 11 10 11 14 13 11 8 6 5 5 5 4 3 3 2 6 7 7 8 7 8 9 8 8 7 7 9 7 9 16 16 15 19 21 19 16 14
21 21 22 22 24 25 26 27 28 29 28 28 28 27 26 25 26 25 23 22 21 20 19 18 17 18 20 22 26 29 30 28 27 25 22 20 18 17 16 16 16 16 15 12 12 14 13 12 11 11 14 16 14 11 8 5 5 5 4 3 3 2 1 4 6 8 9 10 10 9 8 8 7 7 10 8 9 15 16 15 18 20 19 16 13
22 22 23 24 24 25 27 29 31 31 30 30 31 30 28 27 25 23 22 22 20 19 18 18 17 18 20 23 28 31 31 29 28 26 22 20 19 17 16 17 17 16 15 12 12 13 13 12 11 12 16 17 14 11 7 4 5 5 2 2 2 2 3 3 4 7 10 11 11 9 8 9 8 8 12 11 11 15 15 14 18 20 19 17 16
23 22 23 24 24 26 28 30 31 31 32 33 32 30 28 26 24 23 22 21 20 18 18 18 18 18 20 24 27 29 31 31 29 26 22 20 17 15 15 18 17 16 14 13 13 14 14 13 11 11 15 17 14 11 8 5 6 5 2 2 3 2 3 2 2 6 9 10 10 9 8 10 9 8 12 13 12 13 12 12 18 20 18 18 18
22 23 23 23 23 26 29 31 30 30 31 32 31 28 26 25 24 23 22 21 20 20 19 19 19 19 21 23 25 27 31 32 29 25 21 18 15 12 14 17 18 16 16 15 15 15 15 15 13 12 14 15 14 12 9 7 6 5 3 3 3 3 2 1 3 8 10 8 8 8 8 9 8 8 10 12 12 12 11 12 17 18 17 17 19
22 23 23 22 23 26 29 30 30 29 29 29 28 26 24 24 24 23 22 21 21 21 20 20 20 20 21 22 22 25 30 31 28 25 21 17 14 11 12 16 18 18 17 16 15 15 16 15 14 13 13 13 13 12 10 9 7 5 4 4 4 4 2 2 5 8 9 7 7 8 8 9 8 9 11 12 12 12 11 12 16 15 15 17 18
23 23 23 22 23 27 29 28 28 28 27 26 26 25 24 24 23 23 22 22 22 22 20 20 20 21 21 20 21 25 29 29 27 25 21 17 13 11 11 14 18 19 18 18 17 17 17 15 14 13 13 12 11 10 9 8 6 5 6 5 4 2 2 4 6 7 7 6 6 7 8 9 9 10 12 12 12 11 11 13 13 12 13 14 14
23 22 23 23 24 27 29 28 27 27 27 26 25 25 24 23 22 22 22 22 22 21 20 19 20 21 22 20 20 25 29 28 25 24 21 17 13 11 11 13 17 19 17 18 20 21 19 15 12 12 12 11 10 9 8 6 5 6 7 5 3 1 3 5 6 6 6 6 6 7 8 9 9 10 11 11 10 9 11 14 11 10 14 15 10
22 22 23 23 25 28 28 26 25 26 26 26 25 24 24 23 22 22 22 22 22 21 20 19 20 20 21 21 21 24 27 27 25 24 22 17 14 12 11 13 16 16 14 16 20 20 17 13 11 12 12 11 10 8 7 6 5 6 6 4 2 1 4 5 5 4 5 6 6 6 8 8 9 10 10 11 10 8 10 17 16 12 17 19 13
23 22 22 23 25 27 27 25 26 26 26 25 24 23 24 23 22 22 22 21 22 22 21 20 21 21 20 21 22 24 26 26 26 25 23 19 16 13 12 13 14 11 10 14 17 15 12 10 11 12 11 11 10 9 8 7 6 6 5 4 2 1 3 4 3 2 3 5 6 6 8 8 8 9 10 10 13 11 10 17 22 17 17 20 16
25 23 23 24 25 26 26 26 26 26 25 24 22 22 23 22 21 21 21 21 22 21 20 20 22 22 21 21 22 24 25 26 26 26 24 21 18 16 14 14 13 11 11 14 15 13 11 9 9 11 11 11 10 9 8 8 7 7 6 4 4 3 2 1 1 2 3 5 5 5 7 8 7 9 10 11 15 16 12 15 21 20 19 20 16
24 24 24 24 24 25 26 26 25 24 24 22 20 20 21 20 19 20 21 21 21 22 22 22 22 22 22 23 23 23 24 26 28 28 26 23 21 19 17 16 14 12 11 11 11 12 11 8 8 11 11 11 10 10 9 9 8 8 7 6 7 7 6 4 1 2 2 4 5 5 7 9 9 9 11 11 14 19 16 14 18 21 21 21 17
24 23 24 24 24 24 24 25 23 23 22 20 19 19 20 18 18 20 20 20 22 23 23 22 22 22 22 23 24 24 24 26 29 31 28 25 24 22 20 19 17 13 11 10 10 10 11 10 11 12 11 11 10 10 10 10 10 11 9 6 6 6 6 6 4 1 2 3 4 5 6 9 10 10 11 12 13 17 17 15 17 21 20 19 17
23 23 24 24 23 24 24 24 23 22 21 20 20 21 18 17 19 21 21 21 22 22 22 21 21 21 21 22 24 24 24 25 28 31 30 26 24 23 22 21 20 16 13 11 11 11 12 12 13 12 12 12 12 13 15 15 14 12 11 6 4 3 3 3 3 1 2 1 3 5 5 7 9 10 11 12 12 15 16 15 18 21 20 17 17
21 22 22 22 24 25 24 23 24 24 22 21 23 23 18 16 18 19 21 24 24 22 22 22 22 21 21 22 23 23 22 24 26 29 30 26 23 22 21 21 21 19 16 14 13 13 13 13 13 14 14 15 17 17 15 13 9 7 8 7 5 4 4 3 2 1 2 1 3 6 5 6 8 10 11 12 13 15 15 14 17 21 20 17 19
21 21 21 22 25 25 24 24 25 26 24 24 26 25 20 16 14 14 17 23 25 23 22 23 24 24 22 23 25 24 23 24 26 28 29 27 23 22 21 21 21 20 19 18 15 12 13 14 15 16 17 17 16 13 9 8 7 7 8 7 6 4 5 5 3 2 2 1 5 7 5 5 8 10 12 12 13 15 15 14 16 19 18 18 20
21 22 22 23 26 25 23 24 26 26 25 25 26 25 21 18 17 15 15 17 20 21 19 18 20 21 19 21 25 25 24 26 29 28 28 27 25 24 23 21 20 19 20 21 17 12 11 13 14 15 15 14 11 10 8 8 9 9 10 10 8 7 7 5 3 4 5 4 5 7 6 7 10 12 12 11 13 16 16 15 17 18 18 18 20
21 21 22 25 27 25 22 23 24 23 22 23 24 23 21 19 19 19 18 17 17 16 15 13 14 16 17 20 24 25 25 28 30 30 29 27 25 24 24 22 19 18 18 18 17 15 13 12 12 14 15 13 11 11 11 10 9 8 8 8 8 9 9 5 6 6 5 2 6 7 8 10 12 14 13 12 14 15 15 17 18 18 17 18 20
18 19 21 23 24 23 21 22 22 21 20 20 21 22 20 19 20 20 17 15 16 16 15 14 14 15 17 21 24 25 27 30 31 30 29 27 24 23 22 20 18 17 15 15 15 16 15 14 14 15 14 13 12 12 11 9 9 8 7 6 7 7 7 5 5 4 1 4 6 8 11 13 14 13 12 12 14 15 16 18 17 16 18 20 21
17 20 22 23 22 20 20 22 22 20 18 18 20 22 19 17 21 23 18 13 13 14 15 16 16 17 18 21 24 26 29 30 29 29 28 26 24 23 21 18 16 15 15 15 16 17 17 15 15 14 12 11 11 10 10 9 8 8 8 8 7 6 5 4 3 1 4 7 8 10 12 14 13 12 12 12 14 15 16 16 16 18 20 21 20
18 24 26 24 23 21 21 22 22 19 17 17 21 23 19 14 17 24 22 17 15 14 16 19 19 20 21 22 24 26 27 26 25 26 25 23 23 22 20 18 16 14 15 16 17 18 18 16 15 13 11 11 10 10 10 10 10 8 8 7 5 4 4 3 1 5 9 11 12 13 14 13 11 11 12 13 14 15 15 16 18 19 19 18 19
17 24 26 24 24 23 22 23 22 19 16 17 20 21 17 13 16 21 21 17 17 16 18 23 23 20 21 23 22 22 23 21 21 22 21 21 22 21 18 17 16 16 16 16 17 19 19 18 15 12 11 11 10 10 9 10 9 8 8 7 6 5 4 3 5 9 12 13 13 13 11 11 10 10 11 13 13 14 16 17 18 17 17 19 21
15 22 26 25 24 24 23 22 20 18 18 20 20 19 15 15 18 20 18 18 20 18 17 22 21 19 21 24 22 21 22 21 20 21 21 21 22 22 20 17 17 18 17 17 18 19 20 19 16 12 11 10 10 10 8 7 8 7 7 7 8 6 5 6 7 8 7 7 7 6 7 9 9 10 12 12 13 15 16 15 15 17 19 21 20
16 23 27 25 22 22 23 23 21 19 20 21 21 19 16 17 20 20 17 19 22 20 18 20 20 18 21 25 24 23 23 22 20 21 21 21 22 23 21 18 17 17 18 18 20 21 21 18 15 13 12 9 8 9 8 7 7 7 7 6 6 5 5 5 3 4 6 8 7 6 7 8 10 11 12 12 12 14 14 14 16 19 19 18 18
17 23 24 21 19 20 21 22 21 21 21 22 21 19 18 19 21 18 14 19 24 21 18 21 22 19 21 26 26 25 24 22 20 20 21 21 22 22 21 19 17 17 17 18 19 19 20 17 13 12 13 11 7 7 8 7 6 6 5 4 3 2 2 2 4 5 7 8 8 8 9 9 10 10 10 11 12 12 12 14 17 17 16 16 18
18 20 19 17 16 16 17 20 21 21 22 22 21 20 20 22 21 16 13 19 25 21 17 19 21 20 22 25 26 26 25 22 20 21 21 21 22 22 21 21 20 18 17 16 14 11 15 14 10 7 11 13 11 8 7 5 4 4 3 2 2 1 1 3 5 7 8 8 8 9 9 9 9 8 9 11 11 11 13 15 15 14 16 17 18
19 21 19 17 16 14 16 19 20 20 20 21 21 22 22 22 20 15 12 18 23 20 16 17 20 22 23 24 24 25 23 20 20 21 20 21 22 21 20 21 21 19 16 14 11 9 10 11 7 6 8 10 9 8 7 5 4 3 3 1 0 1 3 5 7 9 9 9 8 7 6 6 7 9 9 9 11 12 13 13 13 14 16 17 16
20 23 22 19 16 15 17 19 18 18 19 19 20 21 22 22 20 16 13 17 22 21 16 15 20 24 25 24 24 25 22 18 19 21 19 20 22 20 18 20 21 18 14 11 10 9 10 10 9 7 8 9 8 8 7 7 6 5 4 4 4 5 6 7 8 10 10 8 6 4 4 5 7 8 7 8 10 12 11 12 13 15 15 15 16
21 23 22 19 17 18 20 20 18 19 20 19 18 21 22 21 19 16 13 17 22 19 11 12 20 26 27 25 25 25 22 17 18 20 20 19 21 20 18 19 19 16 12 10 9 8 8 9 10 9 9 8 7 6 5 5 5 6 7 7 7 7 8 8 7 8 8 6 5 3 4 5 6 6 7 9 10 10 10 11 13 13 13 14 16
21 21 21 19 19 20 21 21 20 21 22 21 20 21 21 19 17 14 13 15 16 12 9 14 20 25 26 23 23 25 21 16 14 18 20 20 20 19 18 17 16 13 10 10 10 9 8 9 9 9 8 7 6 5 5 6 7 9 10 10 9 8 7 7 6 6 6 6 5 4 4 4 4 5 8 10 9 8 9 11 11 12 13 14 14
19 19 17 16 16 18 20 21 22 22 21 21 21 21 20 19 17 14 14 14 13 11 13 17 20 22 23 22 22 23 21 15 10 13 18 19 20 19 17 16 16 14 11 11 11 10 10 10 10 9 8 8 8 9 9 10 11 11 11 10 8 6 6 6 6 5 5 5 4 4 4 3 3 6 8 9 7 7 9 11 10 11 12 13 13
17 17 15 13 14 17 19 22 23 22 20 20 21 20 19 19 18 15 15 14 13 12 16 19 19 21 23 22 20 20 21 17 10 9 12 16 18 18 16 14 14 14 13 13 13 12 11 11 11 10 10 11 11 11 12 13 13 12 9 7 6 6 6 5 4 3 3 3 2 1 1 4 6 7 7 6 6 8 10 9 9 11 12 12 12
17 18 18 16 15 17 19 21 22 20 18 19 20 19 19 19 18 16 16 15 14 14 16 20 21 22 23 23 21 20 22 20 15 11 13 16 18 17 15 14 14 14 14 14 15 14 13 13 13 12 12 13 13 13 14 14 13 11 8 6 6 5 4 4 3 2 2 2 0 1 2 5 6 5 4 4 7 8 8 7 9 10 11 11 12
17 19 19 18 18 18 19 21 21 19 17 18 20 21 21 21 20 18 18 17 16 16 17 19 21 21 22 23 22 22 22 22 20 18 17 18 18 17 16 17 18 17 15 14 14 14 14 14 13 13 14 14 14 15 15 14 11 9 7 6 5 4 3 2 1 2 2 0 1 1 2 4 5 4 3 4 7 7 6 7 8 10 10 11 11
17 18 19 19 19 19 21 22 22 20 20 20 21 22 23 23 21 20 20 19 18 18 19 19 20 20 20 20 20 19 19 21 22 19 17 17 18 18 19 20 19 17 15 15 15 15 14 14 13 13 13 14 14 14 14 12 10 8 7 6 4 3 1 0 1 2 1 0 1 1 1 2 4 3 2 4 6 6 6 6 8 9 9 10 11
Wind_Direction
172 171 171 166 164 164 165 165 164 167 169 168 167 167 168 172 173 165 157 154 152 149 146 141 142 145 140 137 136 132 127 123 120 119 118 118 117 115 113 110 107 106 103 98 96 94 92 89 84 82 83 79 76 74 69 67 67 66 66 65 55 41 40 52 60 72 55 32 31 30 17 16 19 15 14 10 10 14 11 9 10 8 7 3 357
171 172 170 166 165 164 164 163 162 165 167 167 166 168 172 176 171 162 157 153 147 144 146 147 148 146 139 138 138 133 131 129 126 125 124 121 119 118 116 114 111 108 104 100 98 98 94 89 84 80 79 76 75 74 71 70 71 70 67 67 65 49 41 49 53 52 49 38 31 24 15 16 17 16 14 9 9 10 6 6 7 6 5 3 3
170 170 168 166 165 162 162 163 163 165 166 165 165 168 173 173 167 160 156 150 146 147 150 150 148 145 141 141 140 137 136 134 131 130 128 124 123 122 119 116 113 110 107 103 101 98 93 90 87 83 80 77 74 71 71 73 73 75 74 68 69 65 50 48 50 48 48 45 36 23 16 16 16 14 11 9 10 8 3 3 4 2 359 359 4
168 167 166 166 163 159 160 162 162 163 164 161 159 163 170 170 165 160 154 147 145 149 148 147 148 146 143 144 145 142 140 138 137 134 131 129 126 124 121 119 117 114 111 108 105 101 96 92 89 86 85 80 76 72 71 73 73 76 82 75 68 70 63 54 49 50 51 46 40 31 21 16 14 12 8 6 8 7 4 3 3 1 357 357 4
163 163 164 163 161 158 159 161 161 160 159 158 158 164 170 170 167 162 154 146 147 150 147 147 150 148 146 149 149 146 144 145 143 138 134 132 129 127 126 123 120 116 113 110 106 102 98 93 91 91 89 82 77 74 70 73 74 72 78 81 73 66 71 66 54 51 55 48 40 34 25 17 14 12 7 3 3 5 4 5 6 2 357 360 8
159 157 157 156 155 155 156 157 158 157 155 157 160 164 167 167 165 161 154 147 146 148 147 150 153 151 151 153 150 148 149 148 144 140 137 135 132 132 128 124 120 116 112 108 105 103 101 101 102 103 101 95 90 84 76 75 77 74 71 74 76 67 68 72 62 53 54 49 42 35 26 18 12 10 8 3 2 3 0 1 7 6 359 0 6
162 154 152 153 153 153 154 153 152 152 152 154 157 159 162 164 163 161 157 150 145 147 150 155 156 154 154 154 150 150 151 148 145 141 139 138 135 132 128 124 122 118 113 111 110 109 111 113 118 118 113 109 106 100 91 84 81 84 78 69 69 66 64 70 68 59 51 48 44 37 28 19 13 9 6 4 6 5 359 355 359 3 0 359 359
161 153 151 151 152 153 154 152 150 149 150 151 151 153 157 160 160 159 157 151 147 152 157 158 157 156 155 151 148 151 153 149 147 144 140 139 137 133 131 128 124 119 115 112 111 112 114 117 119 117 111 107 108 106 103 105 110 107 96 82 72 67 63 66 68 63 53 45 42 37 29 21 14 9 6 6 5 1 358 355 353 357 357 354 355
156 153 153 151 151 153 153 151 149 148 148 147 148 151 154 156 157 156 155 153 150 154 160 159 155 153 151 148 148 152 154 151 150 148 143 141 139 137 134 130 126 122 116 112 112 112 110 109 107 105 105 101 98 96 100 113 121 112 101 93 83 74 65 61 64 65 56 44 39 35 30 23 15 9 7 6 1 355 356 356 353 355 353 347 352
153 153 153 152 152 153 153 152 148 145 146 146 149 153 154 155 154 153 153 152 149 154 159 159 156 150 145 146 152 156 157 157 155 150 146 144 142 139 136 133 130 126 121 116 114 111 107 105 104 104 104 99 94 91 88 91 99 101 100 98 94 88 78 66 60 63 61 50 38 31 30 25 17 11 7 4 2 359 357 355 352 354 350 343 351
154 152 151 152 152 149 149 151 148 148 148 146 151 155 154 152 152 151 150 149 151 157 158 157 158 155 147 147 157 163 161 159 155 150 147 147 144 142 140 138 133 130 127 122 116 112 110 109 108 105 101 97 92 87 85 84 85 88 93 97 98 97 92 80 66 60 63 56 43 37 32 22 15 13 10 6 4 2 359 354 351 352 349 341 348
151 149 149 150 148 145 145 146 147 151 150 147 151 155 154 152 152 152 149 149 156 159 157 156 158 157 153 153 160 163 158 155 153 150 148 147 145 144 142 139 136 133 132 128 122 118 116 113 110 107 103 97 89 81 80 82 81 82 85 88 94 96 96 92 79 66 66 63 51 42 33 21 13 11 11 10 6 4 1 355 351 352 349 342 349
144 146 148 149 147 144 145 143 144 148 150 150 151 152 151 152 154 153 148 151 159 157 155 158 159 155 155 158 160 159 156 155 154 151 148 146 145 145 143 140 139 137 136 136 133 133 134 128 123 123 122 113 99 82 73 74 75 78 78 77 83 90 92 91 87 80 77 74 62 46 31 23 16 13 14 14 10 7 360 352 349 351 348 344 354
140 142 147 150 149 148 148 146 145 148 150 151 151 150 149 149 151 153 149 150 157 156 154 156 156 155 158 161 162 161 159 159 156 151 148 147 147 146 145 142 141 141 143 145 145 148 149 146 145 146 152 162 164 160 116 86 77 78 82 79 75 80 84 83 85 84 78 72 62 43 32 25 19 19 21 20 18 12 359 350 348 349 347 346 354
139 140 146 151 151 150 148 147 148 149 150 151 150 149 149 148 150 154 153 150 151 155 158 158 157 161 165 164 164 163 162 161 158 152 150 150 148 145 144 143 142 143 146 146 147 150 149 150 157 162 173 178 173 165 158 168 158 110 112 114 78 70 68 61 61 61 56 51 38 21 17 14 10 13 18 22 25 19 6 357 354 351 351 350 352
141 143 150 153 154 153 150 148 149 149 149 149 148 148 150 150 149 150 151 151 150 154 159 160 160 163 163 162 163 164 163 162 159 155 151 147 143 143 142 141 142 143 144 144 145 147 149 155 161 169 183 180 172 164 154 153 156 150 157 179 242 353 24 20 23 23 13 4 358 349 345 350 351 355 2 12 22 18 9 2 2 357 352 351 352
144 149 153 155 157 156 151 150 150 150 150 148 147 148 150 151 152 150 149 151 154 157 159 163 165 164 162 165 168 165 163 163 160 153 147 141 140 143 143 142 144 144 143 145 148 147 149 156 161 170 177 171 167 168 162 147 139 149 162 176 215 238 330 356 359 2 351 336 333 331 329 338 343 349 356 0 16 13 360 352 1 359 348 347 354
151 156 159 159 159 157 155 154 153 151 150 149 149 150 150 151 152 152 151 154 158 162 162 164 168 166 166 171 171 166 164 164 159 152 148 145 143 146 148 148 149 149 147 147 154 154 151 155 162 170 171 168 168 169 164 150 136 142 174 191 184 187 271 330 330 334 332 325 327 329 334 344 350 4 8 11 23 15 359 350 358 356 343 341 350
154 159 161 160 160 159 158 158 156 152 150 150 151 151 151 151 152 153 156 158 161 164 165 165 165 165 167 171 169 166 165 163 159 156 154 151 148 150 156 156 155 156 152 147 155 162 161 162 170 174 170 168 170 168 161 145 129 128 173 204 179 210 249 266 289 309 310 313 325 342 1 3 9 28 24 17 21 14 2 357 358 351 340 338 346
156 160 161 160 162 164 162 159 155 152 149 149 150 150 149 151 153 155 159 161 162 165 167 166 163 161 165 168 167 166 166 163 162 162 161 158 154 153 160 163 162 161 157 151 158 169 174 177 180 178 172 170 171 170 164 156 148 147 173 193 189 223 255 253 290 312 310 316 335 355 11 8 11 33 27 15 11 2 354 359 359 351 342 341 343
156 160 160 159 161 164 163 158 153 151 149 148 148 148 150 153 156 160 163 164 164 167 168 166 162 158 162 166 167 169 168 166 166 169 167 165 162 156 160 167 168 164 160 161 166 174 182 189 191 185 179 179 181 179 177 177 177 176 179 179 161 128 86 25 348 336 328 336 354 357 3 4 3 17 20 11 1 352 351 2 0 354 351 346 337
154 156 158 157 158 160 159 155 152 151 150 149 148 149 154 158 161 164 166 165 167 168 167 163 158 156 160 164 168 172 171 170 172 174 172 172 171 164 162 169 172 169 165 168 172 176 183 192 193 188 186 187 189 189 189 193 192 175 157 154 143 119 70 354 346 343 339 353 4 356 359 5 2 9 12 2 355 359 7 7 358 355 357 350 337
152 154 156 156 157 158 155 152 150 150 151 152 152 154 159 162 166 169 169 169 170 168 164 162 159 157 160 164 169 173 174 176 180 180 177 177 178 173 167 169 172 172 172 176 178 177 183 191 191 188 191 191 190 189 192 195 188 160 147 141 132 111 356 344 341 337 340 357 3 358 2 6 6 8 4 355 357 10 13 1 353 356 357 349 345
153 153 154 155 156 155 153 151 151 152 154 156 155 156 161 165 170 174 174 172 170 166 164 165 162 159 159 161 166 173 176 180 186 186 183 182 181 177 172 170 172 175 179 183 180 177 184 192 189 189 193 191 186 185 187 187 175 157 151 142 125 37 341 344 342 339 349 1 3 4 6 5 5 3 356 354 4 13 6 355 348 349 350 344 346
151 150 151 154 155 154 153 153 153 155 158 158 158 160 164 169 175 180 179 175 171 167 165 165 163 163 164 163 166 173 177 182 188 189 187 185 182 177 173 173 176 180 183 180 174 176 185 192 189 191 193 187 182 178 169 159 154 152 155 160 166 327 340 343 340 342 357 1 360 5 6 0 359 357 355 1 4 358 356 355 347 340 349 348 347
149 149 151 153 153 153 153 153 155 158 160 161 162 165 170 175 180 182 179 173 169 167 166 167 171 172 171 167 167 171 177 184 190 191 189 187 183 178 176 177 177 175 169 164 165 171 182 186 188 192 189 182 177 170 155 148 152 159 165 180 206 271 333 343 344 355 6 1 359 9 7 353 350 358 2 4 358 344 347 358 352 345 353 352 348
149 151 152 153 152 151 151 152 155 159 162 165 168 172 175 179 180 178 174 168 167 170 175 179 180 177 172 169 168 170 176 184 189 191 191 189 184 181 180 178 171 158 150 152 158 168 175 179 187 189 186 181 179 178 173 169 177 194 202 208 214 215 236 323 21 52 25 2 359 9 3 349 350 3 3 359 353 345 348 2 354 344 347 349 346
151 152 154 156 154 152 152 154 157 161 166 171 175 174 174 174 174 175 176 174 173 180 187 188 186 180 174 171 169 170 177 184 188 191 191 189 186 184 184 184 175 157 151 157 163 170 178 186 187 183 184 185 187 195 197 192 201 221 233 246 239 227 233 246 214 105 45 9 5 10 2 352 355 4 0 355 351 345 347 359 352 341 343 349 352
154 154 156 158 157 156 155 157 161 165 170 172 170 167 168 170 175 184 190 188 186 190 192 190 187 183 179 176 174 174 179 185 190 192 190 189 189 186 186 190 183 166 165 182 185 181 185 188 184 182 186 191 198 209 212 217 230 231 230 251 251 233 237 237 208 122 32 6 1 7 4 352 351 359 358 352 347 343 344 352 348 338 340 347 353
157 157 158 159 159 159 160 163 166 170 171 165 159 163 170 177 183 191 195 195 196 197 194 190 188 186 185 184 182 182 183 185 189 192 190 189 192 191 191 195 190 178 181 192 189 183 183 183 185 190 196 204 217 228 227 230 234 222 206 210 222 221 239 216 166 80 358 349 356 355 349 343 347 354 349 340 339 341 343 349 345 335 333 344 354
160 160 162 163 162 161 165 170 170 171 171 163 159 163 170 177 185 193 196 197 199 197 192 192 194 193 192 189 185 185 188 187 187 190 189 187 189 191 192 194 193 192 193 189 183 182 184 189 200 208 213 221 228 231 228 226 225 212 201 194 181 198 226 203 168 282 291 300 342 326 312 326 347 349 338 333 336 337 336 340 340 334 334 345 351
162 164 168 168 165 166 172 175 173 173 172 167 166 168 166 160 163 172 183 189 190 188 188 194 198 199 198 192 184 183 187 186 183 183 183 182 183 186 187 188 190 193 191 186 185 189 196 205 216 220 224 229 225 216 214 215 213 222 223 203 184 205 219 195 190 262 252 279 321 313 305 335 351 341 330 330 330 325 324 330 334 333 335 341 341
168 170 173 170 169 174 178 178 177 178 175 169 169 171 168 158 150 145 150 164 175 181 187 195 198 199 198 191 185 184 184 182 178 177 178 180 181 182 182 183 184 184 184 183 187 198 211 222 228 226 229 230 213 195 204 217 217 222 217 204 206 217 208 200 251 258 226 243 313 324 330 341 336 321 313 319 324 323 325 331 333 331 332 334 334
177 177 172 168 171 179 181 179 180 182 178 172 172 176 175 166 157 150 143 141 147 156 166 179 188 190 188 184 183 183 180 177 177 176 177 179 180 180 180 181 181 183 185 187 194 207 221 234 238 230 224 222 210 199 204 216 224 223 213 208 215 207 194 213 268 252 227 279 337 336 325 320 313 304 305 319 326 326 329 331 329 329 333 335 334
183 180 173 170 174 179 179 178 181 184 182 174 172 179 182 173 165 161 152 141 135 132 135 149 161 169 175 177 176 176 175 175 176 177 178 179 179 179 178 178 180 186 193 196 201 211 223 240 249 240 224 214 208 198 194 206 223 222 211 216 225 211 201 221 239 221 267 337 325 311 302 296 291 294 309 326 330 328 330 331 329 332 336 334 330
183 175 172 175 179 179 178 177 177 182 187 181 176 181 182 168 163 164 162 158 150 135 131 141 148 151 159 165 166 168 172 174 176 178 180 182 182 181 179 178 180 188 200 205 207 214 225 241 251 246 226 209 201 190 186 202 221 222 215 213 214 215 215 203 175 56 339 311 290 290 293 290 294 310 328 336 334 330 331 331 332 333 332 329 328
177 169 170 177 182 179 175 174 175 183 192 185 176 177 176 165 160 162 164 173 178 160 145 149 149 145 148 155 159 164 168 172 176 180 182 185 188 188 185 185 187 192 202 208 211 216 227 242 250 241 224 212 203 192 191 204 212 212 209 203 202 220 220 189 61 333 305 285 277 281 289 300 321 338 338 334 333 333 332 332 331 331 331 334 336
175 169 171 176 180 177 172 173 180 186 181 163 155 161 170 176 171 162 159 175 196 189 165 158 157 153 153 156 160 163 167 171 177 182 185 189 191 191 189 189 193 196 201 207 211 217 228 242 246 234 218 210 202 195 196 201 202 202 203 208 221 235 233 251 299 294 285 282 279 280 293 320 338 337 330 330 335 334 331 331 333 336 340 342 340
178 174 173 174 178 178 173 170 171 168 155 144 142 147 156 164 167 166 167 182 199 201 179 164 165 166 164 164 166 166 167 172 176 181 187 190 190 190 189 191 198 204 206 207 209 214 226 238 238 227 219 213 200 194 196 195 194 200 204 204 210 226 250 271 280 289 304 316 315 312 325 331 324 318 324 332 333 331 332 335 340 343 343 340 338
179 176 176 176 176 173 168 163 159 153 148 147 147 148 149 156 165 173 180 182 187 193 182 169 172 181 180 178 179 175 172 175 178 182 187 190 190 191 193 197 206 213 214 215 216 215 220 230 228 214 210 209 191 184 193 200 200 207 212 207 211 243 278 283 294 344 355 352 346 334 319 314 316 323 332 335 332 331 335 338 339 339 339 337 338
182 177 175 172 166 159 155 152 150 150 153 155 154 153 157 165 169 172 172 171 177 187 183 170 175 189 193 194 195 190 182 181 182 185 191 194 192 195 200 204 211 215 220 231 233 218 210 220 226 205 194 197 191 182 189 196 193 193 199 202 206 242 304 353 12 353 335 330 328 317 311 320 332 336 336 335 331 330 332 335 336 338 338 337 337
183 173 165 160 157 154 149 149 151 152 153 155 158 160 164 168 169 171 174 174 180 191 188 171 173 187 196 201 203 196 187 185 186 187 192 195 195 198 204 208 211 218 226 239 243 214 194 206 220 196 179 185 190 183 179 181 178 163 147 117 87 76 3 342 323 308 305 309 312 314 324 336 336 331 332 333 329 328 333 337 338 337 336 336 337
181 172 169 172 170 160 153 153 156 156 154 154 159 165 168 171 173 178 180 176 181 194 196 176 173 183 191 198 201 193 185 185 187 187 191 195 195 198 205 207 211 223 234 238 234 213 195 196 191 150 141 155 167 171 174 184 191 182 170 163 309 299 294 289 283 286 297 303 306 319 342 341 324 324 333 330 325 331 338 337 334 334 336 337 338
177 172 173 176 173 164 161 161 160 159 158 158 161 167 172 176 180 186 186 180 184 197 200 182 175 180 183 187 191 187 183 184 187 188 192 195 194 198 205 206 211 225 237 228 213 202 195 193 184 158 134 132 142 153 162 169 175 187 207 233 257 267 271 273 276 283 292 299 310 332 339 320 319 329 329 320 325 335 338 333 333 337 338 338 337
173 172 171 169 166 165 168 170 168 166 164 163 166 173 178 180 183 187 188 186 191 198 193 171 173 177 175 177 182 184 184 188 190 190 193 194 194 197 202 203 211 224 227 208 191 179 173 177 178 166 151 144 148 156 167 184 204 226 245 259 266 267 265 266 271 277 283 300 327 334 311 314 333 336 318 316 329 337 332 331 336 339 338 337 338
166 169 169 167 165 166 169 172 174 172 169 166 169 175 180 182 182 182 178 176 182 181 154 151 167 173 171 171 178 184 189 194 192 190 194 195 192 195 200 202 207 214 206 190 189 191 181 174 171 165 163 170 182 195 213 232 242 251 261 269 273 268 258 251 256 271 291 316 332 325 319 336 345 318 311 325 336 333 328 334 339 337 336 337 339
165 166 167 165 164 165 169 173 174 173 171 170 171 174 179 180 181 182 177 171 168 156 144 150 164 170 169 169 175 184 194 204 198 189 193 193 187 189 197 198 195 195 192 188 192 195 189 184 184 184 188 200 212 222 232 244 251 255 262 267 263 248 235 238 253 275 300 318 328 339 348 341 304 297 318 337 338 326 331 339 338 333 335 340 342
167 167 167 168 167 167 171 175 175 173 173 174 172 173 177 178 179 183 184 177 165 154 152 158 165 169 171 174 176 182 195 208 208 185 178 179 179 183 185 180 178 186 193 191 188 188 190 194 197 199 199 206 216 225 234 244 251 255 259 255 235 220 223 239 255 279 302 313 333 5 313 281 289 312 339 345 328 325 336 340 334 334 340 345 346
162 165 165 168 170 170 173 177 178 177 177 177 175 174 175 176 179 186 189 184 174 163 161 165 169 171 175 181 185 187 194 203 203 190 180 179 181 185 185 181 185 192 191 183 182 190 197 201 204 205 205 208 216 224 233 242 249 251 248 232 215 214 228 242 253 300 329 325 260 196 248 277 302 332 352 332 318 327 339 339 334 340 347 350 350
164 168 170 172 174 176 178 181 182 182 181 182 183 182 181 180 182 186 188 188 184 176 170 171 175 178 182 188 192 194 198 200 200 197 193 188 185 188 192 192 192 191 187 185 191 201 205 206 208 209 210 213 219 226 233 240 242 237 226 214 211 221 238 251 308 353 360 330 223 242 272 299 320 342 347 315 318 335 351 348 344 349 354 353 351
169 171 171 171 173 178 184 186 186 187 187 187 188 188 188 187 188 189 189 190 190 185 183 184 186 186 187 191 195 200 204 205 203 203 202 199 196 196 195 191 189 190 195 201 206 209 210 210 212 213 214 218 223 227 231 232 227 218 211 209 214 227 240 324 2 7 26 246 291 311 306 310 326 347 345 320 331 356 10 354 350 358 359 352 348